Location: Lane
(33.5226°N, 79.8788°W)
Time: 17:03:51
(UTC+00:00)

Transit 2A - All Passes

Search period start: 26 September 2022 00:00
Search period end: 06 October 2022 00:00
Orbit: 601 x 956 km, 66.7° (Epoch: 26 September)

Date Brightness Start Highest point End Pass type
(mag) Time Alt. Az. Time Alt. Az. Time Alt. Az.
26 Sep - 04:26:49 10° SSE 04:30:07 19° ESE 04:33:18 10° ENE night (unlit)
26 Sep - 06:08:54 10° WSW 06:13:00 31° WNW 06:16:55 10° N night (unlit)
26 Sep - 14:57:29 10° NNW 15:02:16 71° ENE 15:07:32 10° SSE daylight
26 Sep - 16:44:03 10° W 16:44:57 10° WSW 16:45:51 10° WSW daylight
27 Sep - 03:54:23 10° SE 03:55:54 11° ESE 03:57:23 10° E night (unlit)
27 Sep - 05:34:05 10° SW 05:38:34 51° WNW 05:42:51 10° NNE night (unlit)
27 Sep - 14:23:17 10° NNW 14:27:53 45° ENE 14:32:53 10° SE daylight
27 Sep - 16:07:30 10° WNW 16:10:44 17° WSW 16:14:08 10° SSW daylight
28 Sep - 04:59:34 10° SSW 05:04:12 86° WNW 05:08:35 10° NNE night (unlit)
28 Sep - 13:49:16 10° N 13:53:27 29° ENE 13:57:57 10° ESE daylight
28 Sep - 15:32:20 10° NW 15:36:28 27° WSW 15:40:55 10° SSW daylight
29 Sep - 04:25:20 10° S 04:29:52 56° ESE 04:34:10 10° NE night (unlit)
29 Sep - 06:11:26 10° WNW 06:13:15 12° NW 06:15:03 10° NNW night (unlit)
29 Sep - 13:15:29 10° N 13:18:58 20° NE 13:22:39 10° ESE daylight
29 Sep - 14:57:34 10° NW 15:02:10 43° WSW 15:07:13 10° S daylight
30 Sep - 03:51:25 10° S 03:55:34 33° ESE 03:59:32 10° NE night (unlit)
30 Sep - 05:35:29 10° W 05:38:42 19° NW 05:41:49 10° N night (unlit)
30 Sep - 12:42:11 10° NNE 12:44:24 13° NE 12:46:43 10° E daylight
30 Sep - 14:23:01 10° NNW 14:27:51 69° WSW 14:33:10 10° SSE daylight
01 Oct - 03:17:55 10° SSE 03:21:18 20° ESE 03:24:35 10° ENE night (unlit)
01 Oct - 05:00:14 10° WSW 05:04:13 29° WNW 05:08:02 10° N night (unlit)
01 Oct - 13:48:39 10° NNW 13:53:29 76° ENE 13:58:50 10° SSE daylight
02 Oct - 02:45:15 10° SE 02:47:05 12° ESE 02:48:54 10° E night (unlit)
02 Oct - 04:25:23 10° SW 04:29:46 47° WNW 04:34:00 10° NNE night (unlit)
02 Oct - 13:14:25 10° NNW 13:19:06 48° ENE 13:24:14 10° SE daylight
02 Oct - 14:58:49 10° WNW 15:01:57 17° WSW 15:05:13 10° SW daylight
03 Oct - 03:50:49 10° SSW 03:55:24 80° WNW 03:59:46 10° NNE night (unlit)
03 Oct - 12:40:23 10° N 12:44:41 31° ENE 12:49:21 10° ESE daylight
03 Oct - 14:23:35 10° NW 14:27:41 26° WSW 14:32:06 10° SSW daylight
04 Oct - 03:16:32 10° SSW 03:21:03 61° ESE 03:25:22 10° NE night (unlit)
04 Oct - 05:03:04 10° WNW 05:04:30 11° NW 05:05:54 10° NNW night (unlit)
04 Oct - 12:06:32 10° N 12:10:12 21° NE 12:14:07 10° ESE daylight
04 Oct - 13:48:47 10° NW 13:53:24 40° WSW 13:58:26 10° S daylight
05 Oct - 02:42:34 10° S 02:46:45 36° ESE 02:50:46 10° NE night (unlit)
05 Oct - 04:26:53 10° W 04:29:55 18° NW 04:32:53 10° NNW night (unlit)
05 Oct - 11:33:06 10° NNE 11:35:40 14° NE 11:38:20 10° E daylight
05 Oct - 13:14:12 10° NNW 13:19:04 65° WSW 13:24:27 10° SSE daylight
